Alma, MI

12:14 AM EST on November 20, 2019 (GMT -0500)
Gratiot Community

Weather History for KAMN - June, 2019

Change the Weather History Date:

Friday, June 14, 2019

  Actual Average Record
Temperature  
Mean Temperature 58 °F -  
Max Temperature 72 °F 79 °F 93 °F (1988)
Min Temperature 45 °F 54 °F 37 °F (2014)
Degree Days  
Heating Degree Days 6    
Growing Degree Days 8 (Base 50)    
Moisture  
Dew Point 45 °F    
Average Humidity 57    
Maximum Humidity 87    
Minimum Humidity 39    
Precipitation  
Precipitation 0.00 in - - ()
Sea Level Pressure  
Sea Level Pressure 29.94 in    
Wind  
Wind Speed 6 mph (SW)    
Max Wind Speed 14 mph    
Max Gust Speed 22 mph    
Visibility 10 miles    
Events Rain    
Averages and records for this station are not official NWS values.
T = Trace of Precipitation, MM = Missing Value Source: NWS Daily Summary

Daily Weather History Graph

Daily Weather History Graph

Search for Another Location

Airport or City:

Astronomy

Jun. 14, 2019 Rise Set
Actual Time 5:57 AM EDT 9:20 PM EDT
Civil Twilight 5:22 AM EDT 9:55 PM EDT
Nautical Twilight 4:35 AM EDT 10:42 PM EDT
Astronomical Twilight 3:38 AM EDT 11:40 PM EDT
Moon 6:36 PM EDT (6/14) 4:21 AM EDT (6/14)
Length of Visible Light 16h 33m
Length of Day
15h 22m
Waxing Gibbous, 92% of the Moon is Illuminated
Jun 14
Waxing Gibbous
Jun 17
Full
Jun 25
Last Quarter
Jul 2
New
Jul 9
First Quarter

Hourly Weather History & Observations

Time (EDT) Temp. Dew Point Humidity Pressure Visibility Wind Dir Wind Speed Gust Speed Precip Events Conditions
12:19 AM 50.9 °F 39.4 °F 65% 29.92 in 10.0 mi WSW 8.1 mph - N/A   Mostly Cloudy
12:37 AM 50.9 °F 39.4 °F 65% 29.92 in 10.0 mi WSW 5.8 mph - N/A   Scattered Clouds
12:55 AM 51.8 °F 39.7 °F 63% 29.93 in 10.0 mi West 5.8 mph - N/A   Mostly Cloudy
1:15 AM 50.4 °F 40.1 °F 68% 29.93 in 10.0 mi West 5.8 mph - N/A   Scattered Clouds
1:35 AM 49.5 °F 40.5 °F 71% 29.93 in 10.0 mi West 5.8 mph - N/A   Clear
1:58 AM 50.2 °F 41.2 °F 71% 29.94 in 10.0 mi West 4.6 mph - N/A   Mostly Cloudy
2:16 AM 49.5 °F 41.4 °F 74% 29.94 in 10.0 mi West 3.5 mph - N/A   Mostly Cloudy
2:35 AM 48.6 °F 41.5 °F 77% 29.94 in 10.0 mi West 3.5 mph - N/A   Scattered Clouds
2:55 AM 48.4 °F 41.7 °F 78% 29.94 in 10.0 mi Calm Calm - N/A   Clear
2:56 AM 48.4 °F 41.7 °F 78% 29.94 in 10.0 mi Calm Calm - N/A   Clear
3:15 AM - - N/A% 29.95 in - Calm Calm - N/A   Unknown
3:20 AM 47.5 °F 41.9 °F 81% 29.95 in 10.0 mi WSW 3.5 mph - N/A   Unknown
3:38 AM 47.5 °F 42.3 °F 82% 29.95 in 10.0 mi WSW 4.6 mph - N/A   Clear
3:56 AM 47.3 °F 42.3 °F 83% 29.95 in 10.0 mi WSW 4.6 mph - N/A   Clear
4:15 AM 46.9 °F 42.1 °F 83% 29.95 in 10.0 mi WSW 3.5 mph - N/A   Clear
4:35 AM 47.3 °F 42.8 °F 84% 29.96 in 10.0 mi SW 4.6 mph - N/A   Clear
4:59 AM 46.6 °F 41.9 °F 84% 29.96 in 10.0 mi SW 3.5 mph - N/A   Clear
5:18 AM 45.9 °F 42.1 °F 87% 29.96 in 10.0 mi Calm Calm - N/A   Unknown
5:36 AM 46.0 °F 42.4 °F 87% 29.96 in 10.0 mi Calm Calm - N/A   Clear
5:55 AM 45.1 °F 41.5 °F 87% 29.97 in 10.0 mi Calm Calm - N/A   Clear
5:56 AM 45.1 °F 41.5 °F 87% 29.97 in 10.0 mi Calm Calm - N/A   Clear
6:15 AM 46.4 °F 42.8 °F 87% 29.98 in 10.0 mi Calm Calm - N/A   Clear
6:16 AM 46.4 °F 42.8 °F 87% 29.98 in 10.0 mi Calm Calm - N/A   Clear
6:57 AM 48.4 °F 44.4 °F 86% 29.98 in 10.0 mi SW 4.6 mph - N/A   Clear
7:15 AM 50.0 °F 45.3 °F 84% 29.99 in 10.0 mi WSW 6.9 mph - N/A   Clear
7:16 AM 50.0 °F 45.3 °F 84% 29.99 in 10.0 mi WSW 5.8 mph - N/A   Clear
7:35 AM 51.8 °F 46.0 °F 81% 29.99 in 10.0 mi WSW 6.9 mph - N/A   Clear
7:36 AM 51.8 °F 46.0 °F 81% 29.99 in 10.0 mi WSW 6.9 mph - N/A   Clear
7:55 AM 53.6 °F 46.4 °F 77% 29.99 in 10.0 mi WSW 6.9 mph - N/A   Clear
8:17 AM 55.8 °F 46.8 °F 72% 30.01 in 10.0 mi WSW 6.9 mph - N/A   Clear
8:36 AM 57.9 °F 47.8 °F 69% 30.01 in 10.0 mi WSW 8.1 mph - N/A   Clear
8:55 AM 59.0 °F 47.5 °F 66% 30.01 in 10.0 mi WSW 6.9 mph - N/A   Clear
8:56 AM 59.2 °F 47.5 °F 65% 30.01 in 10.0 mi WSW 9.2 mph - N/A   Clear
9:15 AM 61.3 °F 48.6 °F 63% 30.01 in 10.0 mi WSW 6.9 mph - N/A   Clear
9:16 AM 61.5 °F 48.6 °F 62% 30.01 in 10.0 mi WSW 6.9 mph - N/A   Clear
9:39 AM 63.5 °F 48.2 °F 57% 30.01 in 10.0 mi West 6.9 mph - N/A   Clear
9:57 AM 65.1 °F 47.7 °F 53% 30.01 in 10.0 mi WSW 5.8 mph - N/A   Clear
10:15 AM 65.7 °F 45.9 °F 49% 30.01 in 10.0 mi West 8.1 mph - N/A   Clear
10:16 AM 65.8 °F 46.0 °F 49% 30.01 in 10.0 mi West 6.9 mph - N/A   Clear
10:35 AM 68.0 °F 47.5 °F 48% 30.01 in 10.0 mi SW 8.1 mph - N/A   Clear
10:55 AM 68.4 °F 47.3 °F 47% 30.01 in 10.0 mi SW 9.2 mph 16.1 mph N/A   Clear
11:18 AM 69.6 °F 45.9 °F 43% 30.00 in 10.0 mi SW 9.2 mph 12.7 mph N/A   Clear
11:36 AM 69.6 °F 44.2 °F 40% 30.01 in 10.0 mi WSW 12.7 mph 21.9 mph N/A   Clear
11:55 AM 68.4 °F 43.7 °F 41% 30.01 in 10.0 mi WSW 13.8 mph 20.7 mph N/A   Clear
12:15 PM 67.5 °F 41.7 °F 39% 30.01 in 10.0 mi SW 13.8 mph 19.6 mph N/A   Clear
12:39 PM 66.4 °F 42.1 °F 41% 30.01 in 10.0 mi SW 11.5 mph 17.3 mph N/A   Clear
12:57 PM 65.7 °F 42.6 °F 43% 30.00 in 10.0 mi SW 10.4 mph - N/A   Scattered Clouds
1:15 PM 66.2 °F 44.2 °F 45% 29.99 in 10.0 mi SSW 8.1 mph 16.1 mph N/A   Mostly Cloudy
1:16 PM 66.2 °F 44.6 °F 46% 29.99 in 10.0 mi SW 9.2 mph 16.1 mph N/A   Mostly Cloudy
1:35 PM 67.1 °F 46.0 °F 47% 29.98 in 10.0 mi SSW 11.5 mph 16.1 mph N/A   Mostly Cloudy
1:36 PM 67.1 °F 45.9 °F 46% 29.98 in 10.0 mi SSW 10.4 mph 16.1 mph N/A   Mostly Cloudy
1:55 PM 69.4 °F 46.4 °F 44% 29.97 in 10.0 mi SW 12.7 mph 17.3 mph N/A   Scattered Clouds
2:18 PM 69.6 °F 46.8 °F 44% 29.96 in 10.0 mi SW 11.5 mph 17.3 mph N/A   Clear
2:36 PM 69.8 °F 47.5 °F 45% 29.95 in 10.0 mi SSW 11.5 mph 17.3 mph N/A   Clear
2:55 PM 70.0 °F 46.0 °F 42% 29.94 in 10.0 mi SSW 12.7 mph 19.6 mph N/A   Scattered Clouds
3:15 PM 69.8 °F 46.0 °F 43% 29.94 in 10.0 mi SSW 10.4 mph 16.1 mph N/A   Overcast
3:39 PM 68.7 °F 47.1 °F 46% 29.94 in 10.0 mi SSW 5.8 mph - N/A   Overcast
3:57 PM 68.2 °F 44.8 °F 43% 29.94 in 10.0 mi SW 8.1 mph - N/A   Overcast
4:15 PM 69.1 °F 45.0 °F 42% 29.93 in 10.0 mi SSW 4.6 mph - N/A   Overcast
4:16 PM 69.1 °F 45.3 °F 42% 29.93 in 10.0 mi SSW 4.6 mph - N/A   Overcast
4:35 PM 69.3 °F 46.8 °F 45% 29.93 in 10.0 mi Calm Calm - N/A   Overcast
4:36 PM 69.1 °F 46.6 °F 45% 29.93 in 10.0 mi SSW 3.5 mph - N/A   Overcast
4:55 PM 70.9 °F 47.8 °F 44% 29.91 in 10.0 mi SSW 6.9 mph - N/A   Overcast
5:18 PM 72.3 °F 46.9 °F 40% 29.90 in 10.0 mi South 8.1 mph - N/A   Scattered Clouds
5:36 PM 71.8 °F 47.1 °F 41% 29.89 in 10.0 mi South 8.1 mph - N/A   Mostly Cloudy
5:55 PM 71.8 °F 48.0 °F 43% 29.88 in 10.0 mi South 6.9 mph - N/A   Overcast
5:56 PM 71.8 °F 47.8 °F 43% 29.88 in 10.0 mi South 6.9 mph - N/A   Overcast
6:15 PM 71.8 °F 46.9 °F 41% 29.87 in 10.0 mi SSW 6.9 mph - N/A   Overcast
6:16 PM 71.8 °F 46.8 °F 41% 29.87 in 10.0 mi South 8.1 mph - N/A   Overcast
6:39 PM 72.9 °F 47.7 °F 41% 29.87 in 10.0 mi SSW 6.9 mph - N/A   Overcast
6:57 PM 72.0 °F 47.5 °F 42% 29.86 in 10.0 mi SSW 9.2 mph - N/A   Scattered Clouds
7:15 PM 72.1 °F 46.6 °F 40% 29.86 in 10.0 mi South 6.9 mph - N/A   Scattered Clouds
7:16 PM 72.1 °F 46.6 °F 40% 29.86 in 10.0 mi SSW 6.9 mph - N/A   Scattered Clouds
7:35 PM 71.6 °F 46.9 °F 41% 29.86 in 10.0 mi SSW 8.1 mph - N/A   Mostly Cloudy
7:55 PM 70.7 °F 47.1 °F 43% 29.83 in 10.0 mi South 8.1 mph - N/A   Mostly Cloudy
8:18 PM 70.7 °F 45.9 °F 41% 29.85 in 10.0 mi SSW 8.1 mph - N/A   Overcast
8:36 PM 70.0 °F 45.7 °F 42% 29.86 in 10.0 mi South 4.6 mph - N/A   Overcast
8:55 PM 68.9 °F 45.7 °F 43% 29.85 in 10.0 mi South 8.1 mph - N/A   Overcast
8:56 PM 68.9 °F 45.7 °F 43% 29.85 in 10.0 mi South 8.1 mph - N/A   Overcast
9:15 PM 68.9 °F 45.3 °F 43% 29.84 in 10.0 mi South 10.4 mph - N/A   Overcast
9:39 PM 68.4 °F 44.8 °F 43% 29.84 in 10.0 mi South 6.9 mph - N/A   Overcast
9:57 PM 68.0 °F 44.8 °F 43% 29.84 in 10.0 mi South 6.9 mph - N/A   Overcast
10:15 PM 67.5 °F 45.3 °F 45% 29.85 in 10.0 mi South 5.8 mph - N/A Rain Light Rain
10:16 PM 67.5 °F 45.3 °F 45% 29.85 in 10.0 mi South 5.8 mph - N/A Rain Light Rain
10:35 PM 66.4 °F 46.2 °F 48% 29.84 in 10.0 mi South 5.8 mph - N/A   Overcast
10:36 PM 66.4 °F 46.2 °F 48% 29.84 in 10.0 mi South 5.8 mph - N/A   Overcast